Find Starlink 11282

NORAD ID: 60992 Int'l Des: 2024-158 Owner: SPXS Country: US Constellation: starlink operational
LEOCIRCULAR

リアルタイム位置

3D地球を読み込み中...

Starlink 11282について

説明を読み込み中...

次回通過

Passes for default location (London). Set your location on the main map for personalized predictions.

高度履歴

Loading altitude history...

軌道要素

1 60992U 24158C 26105.22602904 -.00000208 00000-0 31408-5 0 9997
2 60992 53.1574 101.1168 0000927 91.7416 268.3708 15.69709741 93338
Epoch: Apr 15, 2026 • Age: 26 hours

現在のステータス

高度 368.3 km
速度 7.69 km/s
衛星直下点 -27.41°S, 119.83°E
打ち上げ日 Sep 5, 2024
運用期間 1.6 years
タイプ internet

技術仕様

分類 Payload
質量 960.00 kg
乾燥質量 910.00 kg
総質量 960.00 kg
長さ 0.30 m
直径 4.10 m
スパン 29.00 m
形状 Box + pan
製造者 SPXS
バスタイプ Starlink V2MD
フェーズステータス In Orbit
所有者/国 SPXS/US

Most Searched